Regional Weather Roundup
Issued by NWS

Home | Current Version | Previous Version | Text Only | Print | Product List | Glossary Off
Versions: 1 2 3 4 5 6 7 8 9 10 11 12 13 14 15 16 17 18 19 20 21 22 23 24 25 26 27 28 29 30 31 32 33 34 35 36 37 38 39 40 41 42 43 44 45 46 47 48 49 50

529
ASUS45 KCYS 211710
RWRWY

WYOMING REGIONAL WEATHER ROUNDUP
NATIONAL WEATHER SERVICE CHEYENNE WY
1000 AM MST SAT JAN 21 2017

NOTE:  "FAIR" INDICATES FEW OR NO CLOUDS BELOW 12,000 FEET
WITH NO SIGNIFICANT WEATHER AND/OR OBSTRUCTIONS TO VISIBILITY.

WYZ001-211800-
YELLOWSTONE NATIONAL PARK

CITY           SKY/WX    TMP DP  RH WIND       PRES   REMARKS
LK YELLOWSTONE   N/A     13  11  92 CALM      29.39R
W YELLOWSTONE  NOT AVBL

$$
WYZ002>013-054>058-071-098>099-211800-
NORTHERN WYOMING

CITY           SKY/WX    TMP DP  RH WIND       PRES   REMARKS
JACKSON        PTSUNNY   16  12  86 CALM      29.41R
CODY           FAIR      27  12  53 CALM      29.39R
GREYBULL       CLOUDY     8   5  87 SE7       29.45R FOG     WCI  -3
WORLAND        PTSUNNY   10   9  95 CALM      29.43R FOG
SHERIDAN       FAIR      24  16  71 SW8       29.39R WCI  15
BUFFALO        FAIR      32  19  58 W5        29.38R WCI  27
GILLETTE       FAIR      30  26  85 NE3       29.39R
HULETT         FAIR      27  27 100 SW5       29.40R WCI  21
NEWCASTLE      FAIR      27  25  93 SE6       29.42R FOG     WCI  20

$$
WYZ014>020-022>026-101>103-211800-
CENTRAL WYOMING

CITY           SKY/WX    TMP DP  RH WIND       PRES   REMARKS
BIG PINEY      CLOUDY    10   8  92 E3        29.39R
PINEDALE       CLOUDY    12  10  92 W3        29.39R
DUBOIS         NOT AVBL
LANDER         FAIR      16  14  92 CALM      29.39R
RIVERTON       FOG      N/A N/A N/A N3        29.40R VSB 1/4
CASPER         FAIR      29  20  69 NW8       29.39R WCI  21
DOUGLAS        FAIR      28  23  81 NW3       29.41R

$$
WYZ021-027>030-104>119-211800-
SOUTHERN WYOMING

CITY           SKY/WX    TMP DP  RH WIND       PRES   REMARKS
EVANSTON       LGT SNOW  17  14  88 SW3       29.39R VSB 1
ROCK SPRINGS   FOG       15  12  88 E3        29.38R VSB 1/4
RAWLINS        FAIR      20  15  81 NW5       29.38R WCI  13
LARAMIE        FAIR      17   9  70 CALM      29.35S
CHEYENNE       FAIR      33  18  53 CALM      29.38R
TORRINGTON     FAIR      27  22  81 W5        29.41R WCI  22

$$




USA.gov is the U.S. government's official web portal to all federal, state and local government web resources and services.